Morgantown, WV

10:27 AM EDT on April 23, 2018 (GMT -0400)
Morgantown Municipal-Hart

Weather History for KMGW - December, 2000

Change the Weather History Date:

Thursday, December 28, 2000

  Actual Average Record
Temperature  
Mean Temperature 16 °F 32 °F  
Max Temperature 21 °F 40 °F 72 °F (1982)
Min Temperature 10 °F 25 °F -13 °F (1894)
Degree Days  
Heating Degree Days 50 33  
Month to date heating degree days 838  
Since 1 July heating degree days 1886  
Cooling Degree Days 0 0  
Month to date cooling degree days 0  
Year to date cooling degree days 814  
Moisture  
Dew Point 8 °F    
Average Humidity 70    
Maximum Humidity 93    
Minimum Humidity 42    
Precipitation  
Precipitation 0.01 in 0.09 in 1.52 in (1874)
Month to date precipitation 2.66  
Year to date precipitation 41.58  
Sea Level Pressure  
Sea Level Pressure 30.12 in    
Wind  
Wind Speed 5 mph (NNW)    
Max Wind Speed 10 mph    
Max Gust Speed 17 mph    
Visibility 8 miles    
Events Fog , Snow    
T = Trace of Precipitation, MM = Missing Value Source: NWS Daily Summary

Daily Weather History Graph

Daily Weather History Graph

Search for Another Location

Airport or City:

Astronomy

Dec. 28, 2000 Rise Set
Actual Time 7:39 AM EST 5:03 PM EST
Civil Twilight 7:09 AM EST 5:33 PM EST
Nautical Twilight 6:35 AM EST 6:07 PM EST
Astronomical Twilight 6:02 AM EST 6:40 PM EST
Moon 9:47 AM EST (12/28) 7:47 PM EST (12/28)
Length of Visible Light 10h 24m
Length of Day
9h 23m
Waxing Crescent, 8% of the Moon is Illuminated
Dec 28
Waxing Crescent
Jan 2
First Quarter
Jan 9
Full
Jan 16
Last Quarter
Jan 24
New

Hourly Weather History & Observations

Time (EST) Temp. Windchill Dew Point Humidity Pressure Visibility Wind Dir Wind Speed Gust Speed Precip Events Conditions
12:53 AM 19.9 °F 13.4 °F 16.0 °F 85% 30.06 in 5.0 mi West 4.6 mph - 0.00 in   Overcast
1:15 AM 19.4 °F 12.8 °F 17.6 °F 93% 30.01 in 2.5 mi Variable 4.6 mph - 0.00 in Snow Light Snow
1:25 AM 19.4 °F 11.5 °F 17.6 °F 93% 30.01 in 3.0 mi WNW 5.8 mph - 0.00 in Snow Light Snow
1:53 AM 19.9 °F 12.1 °F 15.1 °F 81% 30.07 in 7.0 mi Variable 5.8 mph - 0.00 in   Overcast
2:31 AM 19.4 °F 12.8 °F 15.8 °F 86% 30.02 in 7.0 mi Variable 4.6 mph - 0.00 in   Overcast
2:53 AM 19.9 °F 13.4 °F 14.0 °F 78% 30.08 in 10.0 mi West 4.6 mph - 0.00 in   Overcast
3:06 AM 19.4 °F 11.5 °F 12.2 °F 74% 30.03 in 10.0 mi Variable 5.8 mph - N/A   Overcast
3:53 AM 19.0 °F 10.0 °F 12.9 °F 77% 30.09 in 5.0 mi Variable 6.9 mph - 0.00 in Snow Light Snow
4:17 AM 19.4 °F 7.9 °F 14.0 °F 80% 30.05 in 1.5 mi NW 10.4 mph - 0.00 in Snow Light Snow
4:25 AM 17.6 °F 7.3 °F 14.0 °F 86% 30.05 in 0.5 mi NW 8.1 mph 17.3 mph 0.01 in Fog , Snow Snow
4:35 AM 17.6 °F 8.2 °F 14.0 °F 86% 30.06 in 1.0 mi NW 6.9 mph - 0.01 in Snow Light Snow
4:41 AM 17.6 °F 8.2 °F 14.0 °F 86% 30.06 in 2.5 mi Variable 6.9 mph - 0.01 in Snow Light Snow
4:53 AM 17.1 °F 5.8 °F 12.0 °F 81% 30.12 in 9.0 mi NW 9.2 mph - 0.01 in   Overcast
5:53 AM 16.0 °F 5.3 °F 10.0 °F 77% 30.15 in 10.0 mi NW 8.1 mph - N/A   Overcast
6:53 AM 14.0 °F 5.1 °F 7.0 °F 74% 30.17 in 10.0 mi Variable 5.8 mph - N/A   Overcast
7:53 AM 12.9 °F 6.9 °F 7.0 °F 77% 30.18 in 10.0 mi Variable 3.5 mph - N/A   Clear
8:53 AM 12.9 °F 6.9 °F 7.0 °F 77% 30.19 in 10.0 mi NW 3.5 mph - N/A   Scattered Clouds
9:53 AM 14.0 °F 8.2 °F 7.0 °F 74% 30.21 in 10.0 mi North 3.5 mph - N/A   Mostly Cloudy
10:05 AM 14.0 °F 8.2 °F 6.8 °F 73% 30.15 in 10.0 mi Variable 3.5 mph - N/A   Scattered Clouds
10:53 AM 17.1 °F 10.0 °F 7.0 °F 65% 30.22 in 10.0 mi NNW 4.6 mph - N/A   Scattered Clouds
11:53 AM 18.0 °F - 5.0 °F 57% 30.21 in 10.0 mi Calm Calm - N/A   Scattered Clouds
12:53 PM 19.0 °F 11.1 °F 3.9 °F 52% 30.18 in 10.0 mi Variable 5.8 mph - N/A   Partly Cloudy
1:53 PM 19.9 °F 14.9 °F 3.0 °F 48% 30.15 in 10.0 mi Variable 3.5 mph - N/A   Partly Cloudy
2:53 PM 21.0 °F - 1.9 °F 44% 30.15 in 10.0 mi Calm Calm - N/A   Partly Cloudy
3:53 PM 21.0 °F 16.2 °F 1.0 °F 42% 30.15 in 10.0 mi Variable 3.5 mph - N/A   Partly Cloudy
4:53 PM 19.0 °F - -0.0 °F 43% 30.17 in 10.0 mi Calm Calm - N/A   Scattered Clouds
5:53 PM 18.0 °F 12.7 °F 1.0 °F 48% 30.17 in 10.0 mi North 3.5 mph - N/A   Scattered Clouds
6:53 PM 15.1 °F 9.4 °F -0.0 °F 51% 30.18 in 10.0 mi NNE 3.5 mph - N/A   Scattered Clouds
7:53 PM 15.1 °F - 1.9 °F 56% 30.17 in 10.0 mi Calm Calm - N/A   Scattered Clouds
8:19 PM 12.2 °F 4.3 °F 1.4 °F 62% 30.10 in 10.0 mi NE 4.6 mph - N/A   Overcast
8:53 PM 12.0 °F 2.7 °F 1.9 °F 64% 30.16 in 10.0 mi NNE 5.8 mph - N/A   Scattered Clouds
9:53 PM 12.0 °F 1.5 °F 3.9 °F 70% 30.13 in 10.0 mi NE 6.9 mph - N/A   Partly Cloudy
10:53 PM 10.9 °F 4.7 °F 3.9 °F 73% 30.09 in 10.0 mi North 3.5 mph - N/A   Partly Cloudy
11:53 PM 10.9 °F 4.7 °F 5.0 °F 77% 30.07 in 10.0 mi ENE 3.5 mph - N/A   Clear